Abranytanya, Romania

11:04 AM EET on January 20, 2017 (GMT +0200)
Satu Mare

Weather History for LRSM - April, 2013

Change the Weather History Date:

Thursday, April 18, 2013

  Actual Average Record
Temperature  
Mean Temperature 56 °F -  
Max Temperature 71 °F - - ()
Min Temperature 42 °F - - ()
Degree Days  
Heating Degree Days 8    
Growing Degree Days 6 (Base 50)    
Moisture  
Dew Point 41 °F    
Average Humidity 58    
Maximum Humidity 100    
Minimum Humidity 23    
Precipitation  
Precipitation 0.00 in - - ()
Sea Level Pressure  
Sea Level Pressure 30.15 in    
Wind  
Wind Speed 4 mph ()    
Max Wind Speed 9 mph    
Max Gust Speed -    
Visibility 6.2 miles    
Events      
T = Trace of Precipitation, MM = Missing Value Source: Averaged Metar Reports

Daily Weather History Graph

Daily Weather History Graph

Search for Another Location

Airport or City:

Trip Planner

Search our weather history database for the weather conditions in past years. The results will help you decide how hot, cold, wet, or windy it might be!

Date:

Astronomy

Apr. 18, 2013 Rise Set
Actual Time 6:33 AM EEST 8:22 PM EEST
Civil Twilight 6:01 AM EEST 8:55 PM EEST
Nautical Twilight 5:21 AM EEST 9:35 PM EEST
Astronomical Twilight 4:37 AM EEST 10:20 PM EEST
Moon 12:21 PM EEST (4/18) 2:32 AM EEST (4/18)
Length of Visible Light 14h 54m
Length of Day
13h 48m
Waxing Crescent, 49% of the Moon is Illuminated
Apr 18
Waxing Crescent
Apr 18
First Quarter
Apr 25
Full
May 2
Last Quarter
May 10
New

Hourly Weather History & Observations

Time (EEST) Temp. Windchill Dew Point Humidity Pressure Visibility Wind Dir Wind Speed Gust Speed Precip Events Conditions
12:00 AM 51.8 °F - 46.4 °F 82% 30.18 in 6.2 mi SSW 4.6 mph - N/A   Unknown
1:00 AM 50.0 °F - 46.4 °F 87% 30.18 in 6.2 mi SSW 4.6 mph - N/A   Unknown
2:00 AM 48.2 °F - 44.6 °F 87% 30.18 in 6.2 mi WSW 2.3 mph - N/A   Unknown
3:00 AM 46.4 °F 41.9 °F 44.6 °F 93% 30.18 in 6.2 mi SSW 9.2 mph - N/A   Unknown
4:00 AM 46.4 °F - 42.8 °F 87% 30.18 in 6.2 mi Calm Calm - N/A   Unknown
5:00 AM 44.6 °F 42.2 °F 42.8 °F 93% 30.18 in 6.2 mi SE 4.6 mph - N/A   Unknown
5:30 AM 44.6 °F 42.2 °F 42.8 °F 93% 30.18 in 6.2 mi East 4.6 mph - N/A   Unknown
6:00 AM 42.8 °F 40.1 °F 41.0 °F 93% 30.18 in 6.2 mi ESE 4.6 mph - N/A   Unknown
6:30 AM 42.8 °F - 41.0 °F 93% 30.18 in 6.2 mi East 2.3 mph - N/A   Unknown
7:00 AM 42.8 °F - 41.0 °F 93% 30.18 in - SE 2.3 mph - N/A   Clear
7:30 AM 42.8 °F - 42.8 °F 100% 30.18 in - Calm Calm - N/A   Clear
8:00 AM 46.4 °F - 42.8 °F 87% 30.18 in - Calm Calm - N/A   Clear
8:30 AM 50.0 °F - 44.6 °F 82% 30.18 in - Calm Calm - N/A   Clear
9:00 AM 53.6 °F - 48.2 °F 82% 30.18 in - Calm Calm - N/A   Clear
9:30 AM 55.4 °F - 48.2 °F 77% 30.21 in - Calm Calm - N/A   Clear
10:00 AM 60.8 °F - 46.4 °F 59% 30.21 in - Calm Calm - N/A   Clear
10:30 AM 62.6 °F - 41.0 °F 45% 30.21 in - SE 6.9 mph - N/A   Clear
11:00 AM 62.6 °F - 41.0 °F 45% 30.18 in - SSE 4.6 mph - N/A   Clear
11:30 AM 64.4 °F - 41.0 °F 42% 30.18 in - SE 9.2 mph - N/A   Clear
12:00 PM 66.2 °F - 41.0 °F 40% 30.18 in - SE 6.9 mph - N/A   Clear
12:30 PM 66.2 °F - 42.8 °F 43% 30.18 in - SE 6.9 mph - N/A   Clear
1:00 PM 68.0 °F - 41.0 °F 37% 30.18 in - South 9.2 mph - N/A   Clear
1:30 PM 68.0 °F - 39.2 °F 35% 30.18 in - South 6.9 mph - N/A   Clear
2:00 PM 69.8 °F - 37.4 °F 31% 30.15 in - SSW 6.9 mph - N/A   Clear
2:30 PM 69.8 °F - 39.2 °F 33% 30.15 in - SSW 4.6 mph - N/A   Clear
3:00 PM 69.8 °F - 39.2 °F 33% 30.15 in - Variable 2.3 mph - N/A   Clear
3:30 PM 69.8 °F - 33.8 °F 27% 30.12 in - NE 4.6 mph - N/A   Clear
4:00 PM 71.6 °F - 37.4 °F 29% 30.12 in - Variable 2.3 mph - N/A   Clear
4:30 PM 71.6 °F - 33.8 °F 25% 30.12 in - Variable 2.3 mph - N/A   Clear
5:00 PM 71.6 °F - 35.6 °F 27% 30.12 in - South 4.6 mph - N/A   Clear
5:30 PM 71.6 °F - 32.0 °F 23% 30.09 in - SSE 4.6 mph - N/A   Clear
6:00 PM 71.6 °F - 37.4 °F 29% 30.09 in - South 4.6 mph - N/A   Clear
6:30 PM 71.6 °F - 35.6 °F 27% 30.09 in - WSW 4.6 mph - N/A   Clear
7:00 PM 69.8 °F - 39.2 °F 33% 30.09 in - SSW 6.9 mph - N/A   Clear
7:30 PM 66.2 °F - 44.6 °F 46% 30.09 in 6.2 mi SSW 6.9 mph - N/A   Unknown
8:00 PM 62.6 °F - 46.4 °F 55% 30.09 in 6.2 mi South 6.9 mph - N/A   Unknown
8:30 PM 60.8 °F - 42.8 °F 52% 30.09 in 6.2 mi South 6.9 mph - N/A   Unknown
9:00 PM 59.0 °F - 41.0 °F 51% 30.12 in 6.2 mi South 6.9 mph - N/A   Unknown
10:00 PM 57.2 °F - 41.0 °F 55% 30.12 in 6.2 mi South 9.2 mph - N/A   Unknown
11:00 PM 57.2 °F - 41.0 °F 55% 30.12 in 6.2 mi South 6.9 mph - N/A   Unknown